Content
SEND FEEDBACK

Daily
Averages
Monthly
Summary
United States of America

NEW YORK - CENTRAL PARK, NEW YORK


Home > North America > United States > New York
Elevation: 4 meters     Latitude: 40 47N     Longitude: 073 58W

WEATHER
 
SELECT A DAY
Number of Records: 148,328;   Date Range: 11/1/95 - 9/18/14
 
SHARE

PRINT THIS DATA

[ ← Previous Day ]
WEATHER ALMANAC - 5 NOVEMBER, 2013
[ Next Day → ]
[ °F ]   °C
Weather ElementAverageHighLow
Temperature9.4 °C12.8 °C (2:51 pm)5.6 °C (2:51 am)
Dewpoint1.6 °C5 °C (11:51 pm)-3.3 °C (1:51 am)
Humidity58.5 %68 % (11:51 pm)50 % (10:51 am)
Barometer1035.9 hPa1037.9 hPa (1:51 am)1032.2 hPa (11:51 pm)
Wind Speed6.6 km/h11.1 km/h (5:51 am)
Weather ElementAverage
Visibility16.1 km
Wind DirectionNNE (29.6 °)

Weather ElementTotal
Precipitation---
Heating Degree Days9.2 (Base 18.3)
Averaged from 23 records on 5 November, 2013
WEATHER CONDITIONS BREAKOUT
WIND DIRECTION BREAKOUT
WEATHER BY HOUR - 5 NOVEMBER, 2013
[ °F ]   °C
Local TimeTemperatureDewpointHumidityBarometerVisibilityWind DirectionWind SpeedGust SpeedPrecipitationEventsConditions
1:51 AM6.1 °C-3.3 °C51 %1037.9 hPa16.1 kmENE (70°)9.3 km/hClear
2:51 AM5.6 °C-2.2 °C58 %1036.6 hPa16.1 kmENE (70°)7.4 km/hPartly Cloudy
3:51 AM5.6 °C-2.2 °C58 %1037.3 hPa16.1 kmEast (80°)7.4 km/hClear
4:51 AM6.1 °C-1.1 °C60 %1037.6 hPa16.1 kmNE (50°)7.4 km/hMostly Cloudy
5:51 AM5.6 °C-0.6 °C65 %1037.6 hPa16.1 kmENE (60°)11.1 km/hClear
6:51 AM5.6 °C0 °C67 %1037.9 hPa16.1 kmENE (60°)9.3 km/hClear
7:51 AM7.2 °C0.6 °C63 %1037.9 hPa16.1 kmVariable7.4 km/hClear
8:51 AM8.9 °C0.6 °C56 %1037.6 hPa16.1 kmVariable5.6 km/hClear
9:51 AM10.6 °C1.1 °C52 %1037.9 hPa16.1 kmSE (140°)9.3 km/hOvercast
10:51 AM11.7 °C1.7 °C50 %1037.6 hPa16.1 kmNorthPartly Cloudy
11:51 AM11.7 °C2.2 °C52 %1037.3 hPa16.1 kmVariable9.3 km/hOvercast
12:51 PM11.7 °C2.2 °C52 %1036.2 hPa16.1 kmVariable7.4 km/hOvercast
1:51 PM11.7 °C2.2 °C52 %1035.6 hPa16.1 kmVariable7.4 km/hOvercast
2:51 PM12.8 °C2.8 °C51 %1035.2 hPa16.1 kmNorthOvercast
3:51 PM11.1 °C2.8 °C57 %1034.9 hPa16.1 kmVariable5.6 km/hPartly Cloudy
4:51 PM10.6 °C2.8 °C59 %1034.5 hPa16.1 kmVariable5.6 km/hMostly Cloudy
5:51 PM10.6 °C3.3 °C61 %1034.5 hPa16.1 kmCalmClear
6:51 PM10.6 °C3.3 °C61 %1034.9 hPa16.1 kmVariable7.4 km/hScattered Clouds
7:51 PM10.6 °C3.3 °C61 %1034.9 hPa16.1 kmVariable5.6 km/hPartly Cloudy
8:51 PM10.6 °C3.9 °C63 %1034.2 hPa16.1 kmCalmClear
9:51 PM10.6 °C4.4 °C66 %1033.9 hPa16.1 kmCalmPartly Cloudy
10:51 PM11.1 °C4.4 °C63 %1032.8 hPa16.1 kmVariable7.4 km/hScattered Clouds
11:51 PM10.6 °C5 °C68 %1032.2 hPa16.1 kmSSE (150°)9.3 km/hClear
Hourly data recorded from KNYC, located 0 kilometers away from New York - Central Park, New York







STORIES FROM OUR PARTNERS